Weather in Llangefni

United Kingdom     53°15′21″N   4°18′36″W
temp.,
°C
wind,
m/s
gust,
m/s
humid.,
%
clouds,
%
prec.,
mm/h
press.,
hPa
HPBL,
m
12 april, mon
mon1201:00+2ssw2297100 0.4 1026138
04:00+2nne0192100 0.2 102691
07:00+1sw119373 0.3 102716
10:00+6nnw236560 0.1 10281284
13:00+7nw235584 0.1 10291427
16:00+7wnw336064 0.1 10301286
19:00+6w237519 0.1 1030356
22:00+2ssw229114 0.0 103218
13 april, tue
tue1301:00+2s229146 0.0 103221
04:00+3s228382 0.0 103236
07:00+3s228388 0.0 103354
10:00+8sw337759 0.0 1033727
13:00+8w337284 0.6 1033921
16:00+9wnw226993 0.2 1033674
19:00+8nnw12775 0.3 103374
22:00+4e11885 0.0 103411
14 april, wed
wed1401:00+3ese118718 0.0 103411
04:00+3e11857 0.0 103412
07:00+3e11875 0.0 103413
10:00+9ne22715 0.0 1034615
13:00+10ne43655 0.0 10341027
16:00+10ne43672 0.0 1033755
19:00+8ne34790 0.1 1033305
22:00+4ene23900 0.0 103444
15 april, thu
thu1501:00+3ese22821 0.0 103417
04:00+3ese11825 0.0 103412
07:00+4e11825 0.0 103413
10:00+9ene23655 0.0 1034601
13:00+11ne445327 0.1 10331260
16:00+10ene555713 0.1 1032773
19:00+8ene47706 0.1 1031295
22:00+4se34754 0.0 103248
16 april, fri
fri1601:00+3se22803 0.0 103336
04:00+1se11830 0.0 103317
07:00+1sse11720 0.0 103317
10:00+7e01480 0.0 1033679
13:00+9nnw22435 0.0 10331638
16:00+9n32505 0.0 10321011
19:00+7n346753 0.0 1032318
22:00+4ne2278100 0.0 103221